owner,sensor,date,latitude,longitude,vertical_datum,sea_water_practical_salinity,qcFlag 
NERRS,ioos:station:NOAA.NERRS:gndpcwq:1,2015-02-01T00:00:00Z,30.3486,-88.4185,1.65,26.4,1111122 
NERRS,ioos:station:NOAA.NERRS:gndpcwq:1,2015-02-01T01:00:00Z,30.3486,-88.4185,1.67,26.4,1111122 
NERRS,ioos:station:NOAA.NERRS:gndpcwq:1,2015-02-01T02:00:00Z,30.3486,-88.4185,1.66,26.4,1111122 
NERRS,ioos:station:NOAA.NERRS:gndpcwq:1,2015-02-01T03:00:00Z,30.3486,-88.4185,1.64,26.4,1111122 
NERRS,ioos:station:NOAA.NERRS:gndpcwq:1,2015-02-01T04:00:00Z,30.3486,-88.4185,1.62,26.3,1111122 
NERRS,ioos:station:NOAA.NERRS:gndpcwq:1,2015-02-01T05:00:00Z,30.3486,-88.4185,1.59,26.6,1111122 
NERRS,ioos:station:NOAA.NERRS:gndpcwq:1,2015-02-01T06:00:00Z,30.3486,-88.4185,1.51,26.7,1111122 
NERRS,ioos:station:NOAA.NERRS:gndpcwq:1,2015-02-01T07:00:00Z,30.3486,-88.4185,1.42,26.6,1111122 
NERRS,ioos:station:NOAA.NERRS:gndpcwq:1,2015-02-01T08:00:00Z,30.3486,-88.4185,1.32,26.2,1111122 
NERRS,ioos:station:NOAA.NERRS:gndpcwq:1,2015-02-01T09:00:00Z,30.3486,-88.4185,1.23,25.8,1111122 
NERRS,ioos:station:NOAA.NERRS:gndpcwq:1,2015-02-01T10:00:00Z,30.3486,-88.4185,1.17,25.8,1111122 
NERRS,ioos:station:NOAA.NERRS:gndpcwq:1,2015-02-01T11:00:00Z,30.3486,-88.4185,1.16,25.7,1111122 
NERRS,ioos:station:NOAA.NERRS:gndpcwq:1,2015-02-01T12:00:00Z,30.3486,-88.4185,1.18,25.8,1111122 
NERRS,ioos:station:NOAA.NERRS:gndpcwq:1,2015-02-01T13:00:00Z,30.3486,-88.4185,1.22,25.8,1111122 
NERRS,ioos:station:NOAA.NERRS:gndpcwq:1,2015-02-01T14:00:00Z,30.3486,-88.4185,1.25,26.4,1111122 
NERRS,ioos:station:NOAA.NERRS:gndpcwq:1,2015-02-01T15:00:00Z,30.3486,-88.4185,1.27,26.6,1111122 
NERRS,ioos:station:NOAA.NERRS:gndpcwq:1,2015-02-01T16:00:00Z,30.3486,-88.4185,1.3,26.5,1111122 
NERRS,ioos:station:NOAA.NERRS:gndpcwq:1,2015-02-01T17:00:00Z,30.3486,-88.4185,1.35,26.8,1111122 
NERRS,ioos:station:NOAA.NERRS:gndpcwq:1,2015-02-01T18:00:00Z,30.3486,-88.4185,1.44,26.8,1111122 
NERRS,ioos:station:NOAA.NERRS:gndpcwq:1,2015-02-01T19:00:00Z,30.3486,-88.4185,1.45,26.8,1111122 
NERRS,ioos:station:NOAA.NERRS:gndpcwq:1,2015-02-01T20:00:00Z,30.3486,-88.4185,1.48,26.7,1111122 
NERRS,ioos:station:NOAA.NERRS:gndpcwq:1,2015-02-01T21:00:00Z,30.3486,-88.4185,1.47,26.7,1111122 
NERRS,ioos:station:NOAA.NERRS:gndpcwq:1,2015-02-01T22:00:00Z,30.3486,-88.4185,1.5,26.7,1111122 
NERRS,ioos:station:NOAA.NERRS:gndpcwq:1,2015-02-01T23:00:00Z,30.3486,-88.4185,1.57,26.8,1111122 
NERRS,ioos:station:NOAA.NERRS:gndpcwq:1,2015-02-02T00:00:00Z,30.3486,-88.4185,1.63,27.0,1111122 
NERRS,ioos:station:NOAA.NERRS:gndpcwq:1,2015-02-02T01:00:00Z,30.3486,-88.4185,1.7,26.9,1111122 
NERRS,ioos:station:NOAA.NERRS:gndpcwq:1,2015-02-02T02:00:00Z,30.3486,-88.4185,1.74,26.7,1111122 
NERRS,ioos:station:NOAA.NERRS:gndpcwq:1,2015-02-02T03:00:00Z,30.3486,-88.4185,1.72,26.5,1111122 
NERRS,ioos:station:NOAA.NERRS:gndpcwq:1,2015-02-02T04:00:00Z,30.3486,-88.4185,1.67,26.4,1111122 
NERRS,ioos:station:NOAA.NERRS:gndpcwq:1,2015-02-02T05:00:00Z,30.3486,-88.4185,1.62,26.4,1111122 
NERRS,ioos:station:NOAA.NERRS:gndpcwq:1,2015-02-02T06:00:00Z,30.3486,-88.4185,1.6,26.5,1111122 
NERRS,ioos:station:NOAA.NERRS:gndpcwq:1,2015-02-02T07:00:00Z,30.3486,-88.4185,1.5,26.3,1111122 
NERRS,ioos:station:NOAA.NERRS:gndpcwq:1,2015-02-02T08:00:00Z,30.3486,-88.4185,1.39,26.4,1111122 
NERRS,ioos:station:NOAA.NERRS:gndpcwq:1,2015-02-02T09:00:00Z,30.3486,-88.4185,1.27,26.0,1111122 
NERRS,ioos:station:NOAA.NERRS:gndpcwq:1,2015-02-02T10:00:00Z,30.3486,-88.4185,1.17,25.6,1111122 
NERRS,ioos:station:NOAA.NERRS:gndpcwq:1,2015-02-02T11:00:00Z,30.3486,-88.4185,1.12,25.7,1111122 
NERRS,ioos:station:NOAA.NERRS:gndpcwq:1,2015-02-02T12:00:00Z,30.3486,-88.4185,0.99,25.5,1111122 
NERRS,ioos:station:NOAA.NERRS:gndpcwq:1,2015-02-02T13:00:00Z,30.3486,-88.4185,0.94,24.8,1111122 
NERRS,ioos:station:NOAA.NERRS:gndpcwq:1,2015-02-02T14:00:00Z,30.3486,-88.4185,0.98,24.9,1111122 
NERRS,ioos:station:NOAA.NERRS:gndpcwq:1,2015-02-02T15:00:00Z,30.3486,-88.4185,0.99,24.9,1111122 
NERRS,ioos:station:NOAA.NERRS:gndpcwq:1,2015-02-02T16:00:00Z,30.3486,-88.4185,0.95,24.7,1111122 
NERRS,ioos:station:NOAA.NERRS:gndpcwq:1,2015-02-02T17:00:00Z,30.3486,-88.4185,1.04,24.9,1111122 
NERRS,ioos:station:NOAA.NERRS:gndpcwq:1,2015-02-02T18:00:00Z,30.3486,-88.4185,1.17,25.7,1111122 
NERRS,ioos:station:NOAA.NERRS:gndpcwq:1,2015-02-02T19:00:00Z,30.3486,-88.4185,1.24,26.3,1111122 
NERRS,ioos:station:NOAA.NERRS:gndpcwq:1,2015-02-02T20:00:00Z,30.3486,-88.4185,1.3,26.4,1111122 
NERRS,ioos:station:NOAA.NERRS:gndpcwq:1,2015-02-02T21:00:00Z,30.3486,-88.4185,1.33,26.5,1111122 
NERRS,ioos:station:NOAA.NERRS:gndpcwq:1,2015-02-02T22:00:00Z,30.3486,-88.4185,1.39,26.5,1111122 
NERRS,ioos:station:NOAA.NERRS:gndpcwq:1,2015-02-02T23:00:00Z,30.3486,-88.4185,1.45,26.5,1111122 
NERRS,ioos:station:NOAA.NERRS:gndpcwq:1,2015-02-03T00:00:00Z,30.3486,-88.4185,1.5,26.5,1111122 
NERRS,ioos:station:NOAA.NERRS:gndpcwq:1,2015-02-03T01:00:00Z,30.3486,-88.4185,1.55,26.4,1111122 
NERRS,ioos:station:NOAA.NERRS:gndpcwq:1,2015-02-03T02:00:00Z,30.3486,-88.4185,1.6,26.5,1111122 
NERRS,ioos:station:NOAA.NERRS:gndpcwq:1,2015-02-03T03:00:00Z,30.3486,-88.4185,1.6,26.3,1111122 
NERRS,ioos:station:NOAA.NERRS:gndpcwq:1,2015-02-03T04:00:00Z,30.3486,-88.4185,1.55,25.9,1111122 
NERRS,ioos:station:NOAA.NERRS:gndpcwq:1,2015-02-03T05:00:00Z,30.3486,-88.4185,1.49,25.9,1111122 
NERRS,ioos:station:NOAA.NERRS:gndpcwq:1,2015-02-03T06:00:00Z,30.3486,-88.4185,1.43,26.0,1111122 
NERRS,ioos:station:NOAA.NERRS:gndpcwq:1,2015-02-03T07:00:00Z,30.3486,-88.4185,1.37,26.1,1111122 
NERRS,ioos:station:NOAA.NERRS:gndpcwq:1,2015-02-03T08:00:00Z,30.3486,-88.4185,1.3,26.2,1111122 
NERRS,ioos:station:NOAA.NERRS:gndpcwq:1,2015-02-03T09:00:00Z,30.3486,-88.4185,1.22,25.9,1111122 
NERRS,ioos:station:NOAA.NERRS:gndpcwq:1,2015-02-03T10:00:00Z,30.3486,-88.4185,1.17,26.0,1111122 
NERRS,ioos:station:NOAA.NERRS:gndpcwq:1,2015-02-03T11:00:00Z,30.3486,-88.4185,1.1,26.1,1111122 
NERRS,ioos:station:NOAA.NERRS:gndpcwq:1,2015-02-03T12:00:00Z,30.3486,-88.4185,1.06,26.0,1111122 
NERRS,ioos:station:NOAA.NERRS:gndpcwq:1,2015-02-03T13:00:00Z,30.3486,-88.4185,1.08,25.8,1111122 
NERRS,ioos:station:NOAA.NERRS:gndpcwq:1,2015-02-03T14:00:00Z,30.3486,-88.4185,1.15,26.2,1111122 
NERRS,ioos:station:NOAA.NERRS:gndpcwq:1,2015-02-03T15:00:00Z,30.3486,-88.4185,1.19,26.7,1111122 
NERRS,ioos:station:NOAA.NERRS:gndpcwq:1,2015-02-03T16:00:00Z,30.3486,-88.4185,1.24,26.7,1111122 
NERRS,ioos:station:NOAA.NERRS:gndpcwq:1,2015-02-03T17:00:00Z,30.3486,-88.4185,1.26,26.8,1111122 
NERRS,ioos:station:NOAA.NERRS:gndpcwq:1,2015-02-03T18:00:00Z,30.3486,-88.4185,1.28,26.8,1111122 
NERRS,ioos:station:NOAA.NERRS:gndpcwq:1,2015-02-03T20:00:00Z,30.3486,-88.4185,1.32,27.0,1111122 
NERRS,ioos:station:NOAA.NERRS:gndpcwq:1,2015-02-03T21:00:00Z,30.3486,-88.4185,1.35,27.0,1111122 
NERRS,ioos:station:NOAA.NERRS:gndpcwq:1,2015-02-03T22:00:00Z,30.3486,-88.4185,1.37,27.1,1111122 
NERRS,ioos:station:NOAA.NERRS:gndpcwq:1,2015-02-03T23:00:00Z,30.3486,-88.4185,1.38,27.1,1111122 
NERRS,ioos:station:NOAA.NERRS:gndpcwq:1,2015-02-04T00:00:00Z,30.3486,-88.4185,1.42,27.1,1111122 
NERRS,ioos:station:NOAA.NERRS:gndpcwq:1,2015-02-04T01:00:00Z,30.3486,-88.4185,1.48,27.1,1111122 
NERRS,ioos:station:NOAA.NERRS:gndpcwq:1,2015-02-04T02:00:00Z,30.3486,-88.4185,1.56,27.1,1111122 
NERRS,ioos:station:NOAA.NERRS:gndpcwq:1,2015-02-04T03:00:00Z,30.3486,-88.4185,1.6,27.1,1111122 
NERRS,ioos:station:NOAA.NERRS:gndpcwq:1,2015-02-04T04:00:00Z,30.3486,-88.4185,1.54,27.1,1111122 
NERRS,ioos:station:NOAA.NERRS:gndpcwq:1,2015-02-04T05:00:00Z,30.3486,-88.4185,1.5,27.1,1111122 
NERRS,ioos:station:NOAA.NERRS:gndpcwq:1,2015-02-04T06:00:00Z,30.3486,-88.4185,1.47,27.0,1111122 
NERRS,ioos:station:NOAA.NERRS:gndpcwq:1,2015-02-04T07:00:00Z,30.3486,-88.4185,1.43,26.8,1111122 
NERRS,ioos:station:NOAA.NERRS:gndpcwq:1,2015-02-04T08:00:00Z,30.3486,-88.4185,1.35,26.6,1111122 
NERRS,ioos:station:NOAA.NERRS:gndpcwq:1,2015-02-04T09:00:00Z,30.3486,-88.4185,1.27,26.8,1111122 
NERRS,ioos:station:NOAA.NERRS:gndpcwq:1,2015-02-04T10:00:00Z,30.3486,-88.4185,1.21,26.7,1111122 
NERRS,ioos:station:NOAA.NERRS:gndpcwq:1,2015-02-04T11:00:00Z,30.3486,-88.4185,1.15,26.5,1111122 
NERRS,ioos:station:NOAA.NERRS:gndpcwq:1,2015-02-04T12:00:00Z,30.3486,-88.4185,1.1,26.1,1111122 
NERRS,ioos:station:NOAA.NERRS:gndpcwq:1,2015-02-04T13:00:00Z,30.3486,-88.4185,1.06,25.9,1111122 
NERRS,ioos:station:NOAA.NERRS:gndpcwq:1,2015-02-04T14:00:00Z,30.3486,-88.4185,1.07,25.8,1111122 
NERRS,ioos:station:NOAA.NERRS:gndpcwq:1,2015-02-04T15:00:00Z,30.3486,-88.4185,1.08,25.8,1111122 
NERRS,ioos:station:NOAA.NERRS:gndpcwq:1,2015-02-04T16:00:00Z,30.3486,-88.4185,1.12,25.9,1111122 
NERRS,ioos:station:NOAA.NERRS:gndpcwq:1,2015-02-04T17:00:00Z,30.3486,-88.4185,1.16,26.0,1111122 
NERRS,ioos:station:NOAA.NERRS:gndpcwq:1,2015-02-04T18:00:00Z,30.3486,-88.4185,1.19,26.2,1111122 
NERRS,ioos:station:NOAA.NERRS:gndpcwq:1,2015-02-04T19:00:00Z,30.3486,-88.4185,1.17,26.2,1111122 
NERRS,ioos:station:NOAA.NERRS:gndpcwq:1,2015-02-04T20:00:00Z,30.3486,-88.4185,1.19,26.2,1111122 
NERRS,ioos:station:NOAA.NERRS:gndpcwq:1,2015-02-04T21:00:00Z,30.3486,-88.4185,1.15,26.2,1111122 
NERRS,ioos:station:NOAA.NERRS:gndpcwq:1,2015-02-04T22:00:00Z,30.3486,-88.4185,1.17,26.2,1111122 
NERRS,ioos:station:NOAA.NERRS:gndpcwq:1,2015-02-05T00:00:00Z,30.3486,-88.4185,1.22,26.2,1111122 
NERRS,ioos:station:NOAA.NERRS:gndpcwq:1,2015-02-05T01:00:00Z,30.3486,-88.4185,1.35,26.1,1111122 
NERRS,ioos:station:NOAA.NERRS:gndpcwq:1,2015-02-05T02:00:00Z,30.3486,-88.4185,1.46,26.0,1111122 
NERRS,ioos:station:NOAA.NERRS:gndpcwq:1,2015-02-05T03:00:00Z,30.3486,-88.4185,1.54,25.7,1111122 
NERRS,ioos:station:NOAA.NERRS:gndpcwq:1,2015-02-05T04:00:00Z,30.3486,-88.4185,1.57,25.7,1111122 
NERRS,ioos:station:NOAA.NERRS:gndpcwq:1,2015-02-05T05:00:00Z,30.3486,-88.4185,1.55,25.4,1111122 
NERRS,ioos:station:NOAA.NERRS:gndpcwq:1,2015-02-05T06:00:00Z,30.3486,-88.4185,1.47,25.8,1111122 
NERRS,ioos:station:NOAA.NERRS:gndpcwq:1,2015-02-05T07:00:00Z,30.3486,-88.4185,1.3,25.8,1111122 
NERRS,ioos:station:NOAA.NERRS:gndpcwq:1,2015-02-05T08:00:00Z,30.3486,-88.4185,1.34,25.8,1111122 
NERRS,ioos:station:NOAA.NERRS:gndpcwq:1,2015-02-05T09:00:00Z,30.3486,-88.4185,1.34,26.0,1111122 
NERRS,ioos:station:NOAA.NERRS:gndpcwq:1,2015-02-05T10:00:00Z,30.3486,-88.4185,1.31,26.0,1111122 
NERRS,ioos:station:NOAA.NERRS:gndpcwq:1,2015-02-05T11:00:00Z,30.3486,-88.4185,1.26,26.2,1111122 
NERRS,ioos:station:NOAA.NERRS:gndpcwq:1,2015-02-05T12:00:00Z,30.3486,-88.4185,1.2,26.1,1111122 
NERRS,ioos:station:NOAA.NERRS:gndpcwq:1,2015-02-05T13:00:00Z,30.3486,-88.4185,1.17,26.0,1111122 
NERRS,ioos:station:NOAA.NERRS:gndpcwq:1,2015-02-05T14:00:00Z,30.3486,-88.4185,1.19,26.0,1111122 
NERRS,ioos:station:NOAA.NERRS:gndpcwq:1,2015-02-05T15:00:00Z,30.3486,-88.4185,1.16,25.9,1111122 
NERRS,ioos:station:NOAA.NERRS:gndpcwq:1,2015-02-05T16:00:00Z,30.3486,-88.4185,1.24,26.1,1111122 
NERRS,ioos:station:NOAA.NERRS:gndpcwq:1,2015-02-05T17:00:00Z,30.3486,-88.4185,1.25,25.9,1111122 
NERRS,ioos:station:NOAA.NERRS:gndpcwq:1,2015-02-05T18:00:00Z,30.3486,-88.4185,1.27,25.8,1111122 
NERRS,ioos:station:NOAA.NERRS:gndpcwq:1,2015-02-05T19:00:00Z,30.3486,-88.4185,1.29,25.5,1111122 
NERRS,ioos:station:NOAA.NERRS:gndpcwq:1,2015-02-05T20:00:00Z,30.3486,-88.4185,1.33,25.5,1111122 
NERRS,ioos:station:NOAA.NERRS:gndpcwq:1,2015-02-05T21:00:00Z,30.3486,-88.4185,1.32,25.2,1111122 
NERRS,ioos:station:NOAA.NERRS:gndpcwq:1,2015-02-05T22:00:00Z,30.3486,-88.4185,1.27,25.4,1111122 
NERRS,ioos:station:NOAA.NERRS:gndpcwq:1,2015-02-05T23:00:00Z,30.3486,-88.4185,1.27,25.5,1111122 
NERRS,ioos:station:NOAA.NERRS:gndpcwq:1,2015-02-06T00:00:00Z,30.3486,-88.4185,1.27,25.7,1111122 
NERRS,ioos:station:NOAA.NERRS:gndpcwq:1,2015-02-06T01:00:00Z,30.3486,-88.4185,1.29,25.8,1111122 
NERRS,ioos:station:NOAA.NERRS:gndpcwq:1,2015-02-06T02:00:00Z,30.3486,-88.4185,1.33,25.7,1111122 
NERRS,ioos:station:NOAA.NERRS:gndpcwq:1,2015-02-06T03:00:00Z,30.3486,-88.4185,1.35,25.7,1111122 
NERRS,ioos:station:NOAA.NERRS:gndpcwq:1,2015-02-06T04:00:00Z,30.3486,-88.4185,1.33,25.8,1111122 
NERRS,ioos:station:NOAA.NERRS:gndpcwq:1,2015-02-06T05:00:00Z,30.3486,-88.4185,1.3,25.9,1111122 
NERRS,ioos:station:NOAA.NERRS:gndpcwq:1,2015-02-06T06:00:00Z,30.3486,-88.4185,1.29,25.9,1111122 
NERRS,ioos:station:NOAA.NERRS:gndpcwq:1,2015-02-06T07:00:00Z,30.3486,-88.4185,1.32,25.9,1111122 
NERRS,ioos:station:NOAA.NERRS:gndpcwq:1,2015-02-06T08:00:00Z,30.3486,-88.4185,1.32,25.9,1111122 
NERRS,ioos:station:NOAA.NERRS:gndpcwq:1,2015-02-06T09:00:00Z,30.3486,-88.4185,1.3,25.7,1111122 
NERRS,ioos:station:NOAA.NERRS:gndpcwq:1,2015-02-06T10:00:00Z,30.3486,-88.4185,1.25,25.9,1111122 
NERRS,ioos:station:NOAA.NERRS:gndpcwq:1,2015-02-06T11:00:00Z,30.3486,-88.4185,1.17,25.8,1111122 
NERRS,ioos:station:NOAA.NERRS:gndpcwq:1,2015-02-06T12:00:00Z,30.3486,-88.4185,1.14,25.5,1111122 
NERRS,ioos:station:NOAA.NERRS:gndpcwq:1,2015-02-06T13:00:00Z,30.3486,-88.4185,1.11,24.9,1111122 
NERRS,ioos:station:NOAA.NERRS:gndpcwq:1,2015-02-06T14:00:00Z,30.3486,-88.4185,1.15,25.0,1111122 
NERRS,ioos:station:NOAA.NERRS:gndpcwq:1,2015-02-06T15:00:00Z,30.3486,-88.4185,1.19,25.3,1111122 
NERRS,ioos:station:NOAA.NERRS:gndpcwq:1,2015-02-06T16:00:00Z,30.3486,-88.4185,1.23,25.6,1111122 
NERRS,ioos:station:NOAA.NERRS:gndpcwq:1,2015-02-06T17:00:00Z,30.3486,-88.4185,1.25,29.3,1111122 
NERRS,ioos:station:NOAA.NERRS:gndpcwq:1,2015-02-06T18:00:00Z,30.3486,-88.4185,1.25,31.3,1111122 
NERRS,ioos:station:NOAA.NERRS:gndpcwq:1,2015-02-06T19:00:00Z,30.3486,-88.4185,1.26,31.6,1111122 
NERRS,ioos:station:NOAA.NERRS:gndpcwq:1,2015-02-06T20:00:00Z,30.3486,-88.4185,1.26,31.6,1111122 
NERRS,ioos:station:NOAA.NERRS:gndpcwq:1,2015-02-06T21:00:00Z,30.3486,-88.4185,1.26,31.6,1111122 
NERRS,ioos:station:NOAA.NERRS:gndpcwq:1,2015-02-06T22:00:00Z,30.3486,-88.4185,1.23,31.5,1111122 
NERRS,ioos:station:NOAA.NERRS:gndpcwq:1,2015-02-06T23:00:00Z,30.3486,-88.4185,1.23,31.5,1111122 
NERRS,ioos:station:NOAA.NERRS:gndpcwq:1,2015-02-07T00:00:00Z,30.3486,-88.4185,1.22,31.4,1111122 
NERRS,ioos:station:NOAA.NERRS:gndpcwq:1,2015-02-07T01:00:00Z,30.3486,-88.4185,1.26,31.3,1111122 
NERRS,ioos:station:NOAA.NERRS:gndpcwq:1,2015-02-07T02:00:00Z,30.3486,-88.4185,1.29,31.1,1111122 
NERRS,ioos:station:NOAA.NERRS:gndpcwq:1,2015-02-07T03:00:00Z,30.3486,-88.4185,1.35,30.9,1111122 
NERRS,ioos:station:NOAA.NERRS:gndpcwq:1,2015-02-07T04:00:00Z,30.3486,-88.4185,1.36,30.8,1111122 
NERRS,ioos:station:NOAA.NERRS:gndpcwq:1,2015-02-07T05:00:00Z,30.3486,-88.4185,1.34,30.7,1111122 
NERRS,ioos:station:NOAA.NERRS:gndpcwq:1,2015-02-07T06:00:00Z,30.3486,-88.4185,1.31,30.6,1111122 
NERRS,ioos:station:NOAA.NERRS:gndpcwq:1,2015-02-07T07:00:00Z,30.3486,-88.4185,1.29,30.6,1111122 
NERRS,ioos:station:NOAA.NERRS:gndpcwq:1,2015-02-07T08:00:00Z,30.3486,-88.4185,1.28,30.4,1111122 
NERRS,ioos:station:NOAA.NERRS:gndpcwq:1,2015-02-07T09:00:00Z,30.3486,-88.4185,1.26,30.3,1111122 
NERRS,ioos:station:NOAA.NERRS:gndpcwq:1,2015-02-07T10:00:00Z,30.3486,-88.4185,1.22,30.2,1111122 
NERRS,ioos:station:NOAA.NERRS:gndpcwq:1,2015-02-07T11:00:00Z,30.3486,-88.4185,1.16,30.1,1111122 
NERRS,ioos:station:NOAA.NERRS:gndpcwq:1,2015-02-07T12:00:00Z,30.3486,-88.4185,1.13,29.9,1111122 
NERRS,ioos:station:NOAA.NERRS:gndpcwq:1,2015-02-07T13:00:00Z,30.3486,-88.4185,1.12,30.2,1111122 
NERRS,ioos:station:NOAA.NERRS:gndpcwq:1,2015-02-07T14:00:00Z,30.3486,-88.4185,1.15,30.1,1111122 
NERRS,ioos:station:NOAA.NERRS:gndpcwq:1,2015-02-07T15:00:00Z,30.3486,-88.4185,1.18,30.5,1111122 
NERRS,ioos:station:NOAA.NERRS:gndpcwq:1,2015-02-07T16:00:00Z,30.3486,-88.4185,1.23,30.7,1111122 
NERRS,ioos:station:NOAA.NERRS:gndpcwq:1,2015-02-07T17:00:00Z,30.3486,-88.4185,1.25,30.9,1111122 
NERRS,ioos:station:NOAA.NERRS:gndpcwq:1,2015-02-07T18:00:00Z,30.3486,-88.4185,1.25,31.0,1111122 
NERRS,ioos:station:NOAA.NERRS:gndpcwq:1,2015-02-07T19:00:00Z,30.3486,-88.4185,1.26,31.0,1111122 
NERRS,ioos:station:NOAA.NERRS:gndpcwq:1,2015-02-07T20:00:00Z,30.3486,-88.4185,1.29,30.9,1111122 
NERRS,ioos:station:NOAA.NERRS:gndpcwq:1,2015-02-07T21:00:00Z,30.3486,-88.4185,1.3,31.0,1111122 
NERRS,ioos:station:NOAA.NERRS:gndpcwq:1,2015-02-07T22:00:00Z,30.3486,-88.4185,1.31,31.0,1111122 
NERRS,ioos:station:NOAA.NERRS:gndpcwq:1,2015-02-07T23:00:00Z,30.3486,-88.4185,1.3,31.0,1111122 
NERRS,ioos:station:NOAA.NERRS:gndpcwq:1,2015-02-08T00:00:00Z,30.3486,-88.4185,1.3,30.9,1111122 
NERRS,ioos:station:NOAA.NERRS:gndpcwq:1,2015-02-08T01:00:00Z,30.3486,-88.4185,1.31,31.0,1111122 
NERRS,ioos:station:NOAA.NERRS:gndpcwq:1,2015-02-08T02:00:00Z,30.3486,-88.4185,1.34,31.0,1111122 
NERRS,ioos:station:NOAA.NERRS:gndpcwq:1,2015-02-08T03:00:00Z,30.3486,-88.4185,1.38,31.0,1111122 
NERRS,ioos:station:NOAA.NERRS:gndpcwq:1,2015-02-08T04:00:00Z,30.3486,-88.4185,1.4,31.0,1111122 
NERRS,ioos:station:NOAA.NERRS:gndpcwq:1,2015-02-08T05:00:00Z,30.3486,-88.4185,1.4,30.9,1111122 
NERRS,ioos:station:NOAA.NERRS:gndpcwq:1,2015-02-08T06:00:00Z,30.3486,-88.4185,1.37,30.9,1111122 
NERRS,ioos:station:NOAA.NERRS:gndpcwq:1,2015-02-08T07:00:00Z,30.3486,-88.4185,1.35,30.8,1111122 
NERRS,ioos:station:NOAA.NERRS:gndpcwq:1,2015-02-08T08:00:00Z,30.3486,-88.4185,1.34,30.5,1111122 
NERRS,ioos:station:NOAA.NERRS:gndpcwq:1,2015-02-08T09:00:00Z,30.3486,-88.4185,1.33,30.2,1111122 
NERRS,ioos:station:NOAA.NERRS:gndpcwq:1,2015-02-08T10:00:00Z,30.3486,-88.4185,1.3,30.3,1111122 
NERRS,ioos:station:NOAA.NERRS:gndpcwq:1,2015-02-08T11:00:00Z,30.3486,-88.4185,1.25,30.1,1111122 
NERRS,ioos:station:NOAA.NERRS:gndpcwq:1,2015-02-08T12:00:00Z,30.3486,-88.4185,1.21,30.0,1111122 
NERRS,ioos:station:NOAA.NERRS:gndpcwq:1,2015-02-08T13:00:00Z,30.3486,-88.4185,1.19,30.0,1111122 
NERRS,ioos:station:NOAA.NERRS:gndpcwq:1,2015-02-08T14:00:00Z,30.3486,-88.4185,1.2,29.8,1111122 
NERRS,ioos:station:NOAA.NERRS:gndpcwq:1,2015-02-08T15:00:00Z,30.3486,-88.4185,1.24,28.4,1111122 
NERRS,ioos:station:NOAA.NERRS:gndpcwq:1,2015-02-08T16:00:00Z,30.3486,-88.4185,1.26,26.3,1111122 
NERRS,ioos:station:NOAA.NERRS:gndpcwq:1,2015-02-08T17:00:00Z,30.3486,-88.4185,1.28,27.6,1111122 
NERRS,ioos:station:NOAA.NERRS:gndpcwq:1,2015-02-08T18:00:00Z,30.3486,-88.4185,1.27,28.5,1111122 
NERRS,ioos:station:NOAA.NERRS:gndpcwq:1,2015-02-08T19:00:00Z,30.3486,-88.4185,1.26,28.7,1111122 
NERRS,ioos:station:NOAA.NERRS:gndpcwq:1,2015-02-08T20:00:00Z,30.3486,-88.4185,1.25,29.0,1111122 
NERRS,ioos:station:NOAA.NERRS:gndpcwq:1,2015-02-08T21:00:00Z,30.3486,-88.4185,1.27,29.2,1111122 
NERRS,ioos:station:NOAA.NERRS:gndpcwq:1,2015-02-08T22:00:00Z,30.3486,-88.4185,1.27,29.2,1111122 
NERRS,ioos:station:NOAA.NERRS:gndpcwq:1,2015-02-08T23:00:00Z,30.3486,-88.4185,1.27,29.3,1111122 
NERRS,ioos:station:NOAA.NERRS:gndpcwq:1,2015-02-09T00:00:00Z,30.3486,-88.4185,1.25,29.2,1111122 
NERRS,ioos:station:NOAA.NERRS:gndpcwq:1,2015-02-09T01:00:00Z,30.3486,-88.4185,1.23,29.1,1111122 
NERRS,ioos:station:NOAA.NERRS:gndpcwq:1,2015-02-09T02:00:00Z,30.3486,-88.4185,1.25,28.9,1111122 
NERRS,ioos:station:NOAA.NERRS:gndpcwq:1,2015-02-09T03:00:00Z,30.3486,-88.4185,1.26,28.8,1111122 
NERRS,ioos:station:NOAA.NERRS:gndpcwq:1,2015-02-09T04:00:00Z,30.3486,-88.4185,1.3,28.6,1111122 
NERRS,ioos:station:NOAA.NERRS:gndpcwq:1,2015-02-09T05:00:00Z,30.3486,-88.4185,1.32,28.6,1111122 
NERRS,ioos:station:NOAA.NERRS:gndpcwq:1,2015-02-09T06:00:00Z,30.3486,-88.4185,1.32,28.7,1111122 
NERRS,ioos:station:NOAA.NERRS:gndpcwq:1,2015-02-09T07:00:00Z,30.3486,-88.4185,1.32,28.6,1111122 
NERRS,ioos:station:NOAA.NERRS:gndpcwq:1,2015-02-09T08:00:00Z,30.3486,-88.4185,1.32,28.4,1111122 
NERRS,ioos:station:NOAA.NERRS:gndpcwq:1,2015-02-09T09:00:00Z,30.3486,-88.4185,1.3,28.2,1111122 
NERRS,ioos:station:NOAA.NERRS:gndpcwq:1,2015-02-09T10:00:00Z,30.3486,-88.4185,1.29,28.1,1111122 
NERRS,ioos:station:NOAA.NERRS:gndpcwq:1,2015-02-09T11:00:00Z,30.3486,-88.4185,1.27,27.9,1111122 
NERRS,ioos:station:NOAA.NERRS:gndpcwq:1,2015-02-09T12:00:00Z,30.3486,-88.4185,1.27,27.9,1111122 
NERRS,ioos:station:NOAA.NERRS:gndpcwq:1,2015-02-09T13:00:00Z,30.3486,-88.4185,1.28,27.6,1111122 
NERRS,ioos:station:NOAA.NERRS:gndpcwq:1,2015-02-09T14:00:00Z,30.3486,-88.4185,1.29,27.4,1111122 
NERRS,ioos:station:NOAA.NERRS:gndpcwq:1,2015-02-09T15:00:00Z,30.3486,-88.4185,1.3,26.9,1111122 
NERRS,ioos:station:NOAA.NERRS:gndpcwq:1,2015-02-09T16:00:00Z,30.3486,-88.4185,1.34,25.6,1111122 
NERRS,ioos:station:NOAA.NERRS:gndpcwq:1,2015-02-09T17:00:00Z,30.3486,-88.4185,1.37,25.8,1111122 
NERRS,ioos:station:NOAA.NERRS:gndpcwq:1,2015-02-09T18:00:00Z,30.3486,-88.4185,1.38,25.7,1111122 
NERRS,ioos:station:NOAA.NERRS:gndpcwq:1,2015-02-09T19:00:00Z,30.3486,-88.4185,1.35,25.7,1111122 
NERRS,ioos:station:NOAA.NERRS:gndpcwq:1,2015-02-09T21:00:00Z,30.3486,-88.4185,1.3,25.8,1111122 
NERRS,ioos:station:NOAA.NERRS:gndpcwq:1,2015-02-09T22:00:00Z,30.3486,-88.4185,1.31,25.8,1111122 
NERRS,ioos:station:NOAA.NERRS:gndpcwq:1,2015-02-09T23:00:00Z,30.3486,-88.4185,1.29,25.9,1111122 
NERRS,ioos:station:NOAA.NERRS:gndpcwq:1,2015-02-10T00:00:00Z,30.3486,-88.4185,1.27,25.9,1111122 
NERRS,ioos:station:NOAA.NERRS:gndpcwq:1,2015-02-10T01:00:00Z,30.3486,-88.4185,1.22,25.9,1111122 
NERRS,ioos:station:NOAA.NERRS:gndpcwq:1,2015-02-10T02:00:00Z,30.3486,-88.4185,1.18,25.8,1111122 
NERRS,ioos:station:NOAA.NERRS:gndpcwq:1,2015-02-10T03:00:00Z,30.3486,-88.4185,1.15,25.7,1111122 
NERRS,ioos:station:NOAA.NERRS:gndpcwq:1,2015-02-10T04:00:00Z,30.3486,-88.4185,1.12,25.6,1111122 
NERRS,ioos:station:NOAA.NERRS:gndpcwq:1,2015-02-10T05:00:00Z,30.3486,-88.4185,1.11,25.7,1111122 
NERRS,ioos:station:NOAA.NERRS:gndpcwq:1,2015-02-10T06:00:00Z,30.3486,-88.4185,1.08,25.6,1111122 
NERRS,ioos:station:NOAA.NERRS:gndpcwq:1,2015-02-10T07:00:00Z,30.3486,-88.4185,1.04,25.6,1111122 
NERRS,ioos:station:NOAA.NERRS:gndpcwq:1,2015-02-10T08:00:00Z,30.3486,-88.4185,1.03,25.7,1111122 
NERRS,ioos:station:NOAA.NERRS:gndpcwq:1,2015-02-10T09:00:00Z,30.3486,-88.4185,1.04,25.9,1111122 
NERRS,ioos:station:NOAA.NERRS:gndpcwq:1,2015-02-10T10:00:00Z,30.3486,-88.4185,1.05,25.9,1111122 
NERRS,ioos:station:NOAA.NERRS:gndpcwq:1,2015-02-10T11:00:00Z,30.3486,-88.4185,1.05,25.9,1111122 
NERRS,ioos:station:NOAA.NERRS:gndpcwq:1,2015-02-10T12:00:00Z,30.3486,-88.4185,1.05,26.0,1111122 
NERRS,ioos:station:NOAA.NERRS:gndpcwq:1,2015-02-10T13:00:00Z,30.3486,-88.4185,1.03,26.0,1111122 
NERRS,ioos:station:NOAA.NERRS:gndpcwq:1,2015-02-10T14:00:00Z,30.3486,-88.4185,1.03,26.0,1111122 
NERRS,ioos:station:NOAA.NERRS:gndpcwq:1,2015-02-10T15:00:00Z,30.3486,-88.4185,1.08,26.2,1111122 
NERRS,ioos:station:NOAA.NERRS:gndpcwq:1,2015-02-10T16:00:00Z,30.3486,-88.4185,1.15,26.8,1111122 
NERRS,ioos:station:NOAA.NERRS:gndpcwq:1,2015-02-10T17:00:00Z,30.3486,-88.4185,1.23,27.0,1111122 
NERRS,ioos:station:NOAA.NERRS:gndpcwq:1,2015-02-10T18:00:00Z,30.3486,-88.4185,1.28,27.1,1111122 
NERRS,ioos:station:NOAA.NERRS:gndpcwq:1,2015-02-10T19:00:00Z,30.3486,-88.4185,1.32,27.2,1111122 
NERRS,ioos:station:NOAA.NERRS:gndpcwq:1,2015-02-10T21:00:00Z,30.3486,-88.4185,1.33,27.2,1111122 
NERRS,ioos:station:NOAA.NERRS:gndpcwq:1,2015-02-10T22:00:00Z,30.3486,-88.4185,1.3,27.1,1111122 
NERRS,ioos:station:NOAA.NERRS:gndpcwq:1,2015-02-10T23:00:00Z,30.3486,-88.4185,1.29,27.1,1111122 
NERRS,ioos:station:NOAA.NERRS:gndpcwq:1,2015-02-11T00:00:00Z,30.3486,-88.4185,1.26,27.0,1111122 
NERRS,ioos:station:NOAA.NERRS:gndpcwq:1,2015-02-11T01:00:00Z,30.3486,-88.4185,1.23,26.8,1111122 
NERRS,ioos:station:NOAA.NERRS:gndpcwq:1,2015-02-11T02:00:00Z,30.3486,-88.4185,1.2,26.7,1111122 
NERRS,ioos:station:NOAA.NERRS:gndpcwq:1,2015-02-11T03:00:00Z,30.3486,-88.4185,1.18,26.7,1111122 
NERRS,ioos:station:NOAA.NERRS:gndpcwq:1,2015-02-11T04:00:00Z,30.3486,-88.4185,1.14,26.7,1111122 
NERRS,ioos:station:NOAA.NERRS:gndpcwq:1,2015-02-11T05:00:00Z,30.3486,-88.4185,1.12,26.5,1111122 
NERRS,ioos:station:NOAA.NERRS:gndpcwq:1,2015-02-11T06:00:00Z,30.3486,-88.4185,1.1,26.3,1111122 
NERRS,ioos:station:NOAA.NERRS:gndpcwq:1,2015-02-11T07:00:00Z,30.3486,-88.4185,1.1,26.3,1111122 
NERRS,ioos:station:NOAA.NERRS:gndpcwq:1,2015-02-11T08:00:00Z,30.3486,-88.4185,1.11,26.4,1111122 
NERRS,ioos:station:NOAA.NERRS:gndpcwq:1,2015-02-11T09:00:00Z,30.3486,-88.4185,1.12,28.8,1111122 